Change the Weather History Date:

Thursday, August 14, 2014

  Actual Average Record
Temperature  
Mean Temperature 38 °F -  
Max Temperature 39 °F 48 °F 71 °F (1988)
Min Temperature 36 °F 36 °F 31 °F (1992)
Degree Days  
Heating Degree Days 28    
Moisture  
Dew Point 36 °F    
Average Humidity 93    
Maximum Humidity 97    
Minimum Humidity 89    
Precipitation  
Precipitation 0.00 in - - ()
Sea Level Pressure  
Sea Level Pressure 29.85 in    
Wind  
Wind Speed 28 mph (ENE)    
Max Wind Speed 31 mph    
Max Gust Speed 43 mph    
Visibility 2 miles    
Events      
Averages and records for this station are not official NWS values.
T = Trace of Precipitation, MM = Missing Value Source: NWS Daily Summary

Daily Weather History Graph

Daily Weather History Graph

Search for Another Location

Airport or City:

Trip Planner

Search our weather history database for the weather conditions in past years. The results will help you decide how hot, cold, wet, or windy it might be!

Date:

Astronomy

Aug. 14, 2014 Rise Set
Actual Time 4:43 AM AKDT 11:08 PM AKDT
Civil Twilight 2:30 AM AKDT 1:25 AM AKDT
Nautical Twilight Sun does not rise Sun does not rise
Astronomical Twilight Sun does not rise Sun does not rise
Moon 10:05 PM AKDT (8/14) 12:55 PM AKDT (8/14)
Length of Visible Light 22h 54m
Length of Day
18h 25m
Waning Gibbous, 78% of the Moon is Illuminated
Aug 14
Waning Gibbous
Aug 17
Last Quarter
Aug 25
New
Sep 2
First Quarter
Sep 8
Full

Hourly Weather History & Observations

Time (AKDT) Temp. Windchill Dew Point Humidity Pressure Visibility Wind Dir Wind Speed Gust Speed Precip Events Conditions
12:30 AM 37.0 °F 24.9 °F 35.1 °F 93% 29.86 in 1.0 mi ENE 27.6 mph 35.7 mph 0.00 in   Light Drizzle
12:53 AM 37.0 °F 24.9 °F 35.1 °F 93% 29.86 in 1.5 mi ENE 27.6 mph 38.0 mph 0.00 in   Light Drizzle
1:53 AM 37.0 °F 24.5 °F 35.1 °F 93% 29.87 in 1.5 mi ENE 29.9 mph 39.1 mph 0.00 in   Light Drizzle
2:53 AM 37.0 °F 24.5 °F 35.1 °F 93% 29.86 in 1.0 mi ENE 29.9 mph 40.3 mph 0.00 in   Light Drizzle
3:53 AM 37.0 °F 24.5 °F 35.1 °F 93% 29.86 in 1.0 mi East 29.9 mph 38.0 mph 0.00 in   Light Drizzle
4:53 AM 36.0 °F 22.8 °F 35.1 °F 97% 29.87 in 1.2 mi East 31.1 mph 40.3 mph 0.00 in   Light Drizzle
5:09 AM 36.0 °F 23.5 °F 35.1 °F 97% 29.86 in 2.0 mi East 27.6 mph 39.1 mph 0.00 in   Light Drizzle
5:53 AM 36.0 °F 22.8 °F 34.0 °F 93% 29.87 in 1.8 mi East 31.1 mph 36.8 mph 0.00 in   Overcast
6:53 AM 37.0 °F 24.9 °F 35.1 °F 93% 29.86 in 1.8 mi East 27.6 mph 33.4 mph N/A   Overcast
7:53 AM 37.0 °F 26.2 °F 35.1 °F 93% 29.86 in 1.2 mi East 21.9 mph 33.4 mph N/A   Overcast
8:53 AM 37.9 °F 27.1 °F 36.0 °F 93% 29.86 in 1.0 mi East 23.0 mph 31.1 mph N/A   Overcast
9:00 AM 37.0 °F 25.9 °F 36.0 °F 96% 29.85 in 0.8 mi East 23.0 mph 32.2 mph N/A   Overcast
9:53 AM 37.9 °F 26.6 °F 36.0 °F 93% 29.86 in 0.8 mi East 25.3 mph 32.2 mph N/A   Overcast
10:53 AM 37.9 °F 26.3 °F 36.0 °F 93% 29.86 in 1.0 mi East 26.5 mph 34.5 mph N/A   Overcast
11:53 AM 37.9 °F 26.6 °F 37.0 °F 97% 29.86 in 1.5 mi East 25.3 mph 34.5 mph N/A   Overcast
12:53 PM 39.0 °F 28.3 °F 37.0 °F 93% 29.86 in 1.5 mi East 24.2 mph 33.4 mph N/A   Overcast
1:53 PM 39.0 °F 27.2 °F 36.0 °F 89% 29.85 in 1.5 mi East 29.9 mph 39.1 mph N/A   Overcast
2:53 PM 39.0 °F 27.2 °F 36.0 °F 89% 29.85 in 1.5 mi East 29.9 mph 35.7 mph N/A   Overcast
3:53 PM 39.0 °F 27.0 °F 36.0 °F 89% 29.85 in 3.0 mi East 31.1 mph 40.3 mph N/A   Overcast
4:53 PM 39.9 °F 28.6 °F 37.0 °F 89% 29.84 in 5.0 mi East 28.8 mph 40.3 mph N/A   Overcast
5:53 PM 39.0 °F 27.4 °F 36.0 °F 89% 29.84 in 3.0 mi East 28.8 mph 42.6 mph N/A   Overcast
6:53 PM 39.0 °F 27.2 °F 36.0 °F 89% 29.84 in 3.0 mi East 29.9 mph 41.4 mph N/A   Overcast
7:53 PM 39.0 °F 27.4 °F 36.0 °F 89% 29.83 in 3.0 mi ENE 28.8 mph 34.5 mph N/A   Overcast
8:53 PM 37.9 °F 26.1 °F 36.0 °F 93% 29.83 in 3.0 mi ENE 27.6 mph 33.4 mph N/A   Overcast
9:37 PM 37.9 °F 26.3 °F 36.0 °F 93% 29.82 in 2.5 mi ENE 26.5 mph 36.8 mph N/A   Overcast
9:53 PM 37.9 °F 26.3 °F 36.0 °F 93% 29.82 in 2.5 mi East 26.5 mph 38.0 mph N/A   Overcast
10:53 PM 37.9 °F 27.1 °F 36.0 °F 93% 29.83 in 2.5 mi East 23.0 mph 32.2 mph N/A   Overcast
11:53 PM 37.9 °F 25.9 °F 36.0 °F 93% 29.83 in 2.0 mi ENE 28.8 mph 35.7 mph 0.00 in   Light Drizzle